Find Starlink 2533

NORAD ID: 48294 Int'l Des: 2021-036 Owner: SPXS Country: US Constellation: starlink operational
LEOCIRCULAR

現在のビュー

3D地球を読み込み中...

About Starlink 2533

Starlink 2533 (NORAD 48294) is a starlink constellation satellite (v1.0) launched Apr 29, 2021 by SPXS of US. It operates in LEO, CIRCULAR orbit with a mass of 260.00 kg.

次回通過

Passes for default location (London). Set your location on the main map for personalized predictions.

高度履歴

Loading altitude history...

軌道要素

1 48294U 21036U 26248.44907088 .00001262 00000-0 52423-4 0 9992
2 48294 53.1605 318.8191 0001381 63.6221 296.4922 15.31702752295950
Epoch: Sep 5, 2026 • Age: 11 hours

現在のステータス

高度 489.7 km
遠地点 / 近地点 N/A
速度 7.62 km/s
衛星直下点 -52.07°S, 94.81°W
打ち上げ日 Apr 29, 2021
運用期間 5.3 years
タイプ internet

技術仕様

分類 Payload
質量 260.00 kg
乾燥質量 248.00 kg
総質量 260.00 kg
長さ 0.20 m
直径 2.80 m
スパン 9.00 m
形状 Box + pan
製造者 SPXS
バスタイプ Starlink
フェーズステータス In Orbit
所有者/国 SPXS/US

Most Searched